Weather History for Brisbane Airport M. O, Queensland

Change the Weather History Date:

Monday, July 22, 2013

  Actual Average Record
Temperature  
Mean Temperature 58 °F -  
Max Temperature 64 °F 70 °F - ()
Min Temperature 51 °F 50 °F - ()
Degree Days  
Heating Degree Days 8    
Growing Degree Days 8 (Base 50)    
Moisture  
Dew Point 48 °F    
Average Humidity 70    
Maximum Humidity 94    
Minimum Humidity 35    
Precipitation  
Precipitation 0.08 in 0.07 in - ()
Sea Level Pressure  
Sea Level Pressure 30.13 in    
Wind  
Wind Speed 7 mph ()    
Max Wind Speed 12 mph    
Max Gust Speed -    
Visibility 7.1 miles    
Events Rain    
T = Trace of Precipitation, MM = Missing Value Source: Averaged Metar Reports

Daily Weather History Graph

Daily Weather History Graph

Search for Another Location

Airport:

Trip Planner

Search our weather history database for the weather conditions in past years. The results will help you decide how hot, cold, wet, or windy it might be!

Date:

Astronomy

Jul. 22, 2013 Rise Set
Actual Time 6:34 AM AEST 5:14 PM AEST
Civil Twilight 6:09 AM AEST 5:38 PM AEST
Nautical Twilight 5:40 AM AEST 6:07 PM AEST
Astronomical Twilight 5:12 AM AEST 6:35 PM AEST
Moon 4:46 PM AEST (7/22) 5:32 AM AEST (7/22)
Length of Visible Light 11h 29m
Length of Day
10h 39m
Waxing Gibbous, 99% of the Moon is Illuminated
Jul 22
Waxing Gibbous
Jul 23
Full
Jul 30
Last Quarter
Aug 7
New
Aug 14
First Quarter

Hourly Weather History & Observations

Time (AEST) Temp. Dew Point Humidity Pressure Visibility Wind Dir Wind Speed Gust Speed Precip Events Conditions
12:00 AM 55 °F 50 °F 76% 30.11 in 19 mi SW 5.8 mph - -   Partly Cloudy
12:00 AM 55.4 °F 50.0 °F 82% 30.09 in 6.2 mi SW 5.8 mph - N/A   Mostly Cloudy
12:30 AM 55.4 °F 50.0 °F 82% 30.09 in 6.2 mi SSW 6.9 mph - N/A   Mostly Cloudy
1:00 AM 55 °F 51 °F 82% 30.11 in - SSW 6.9 mph - -  
1:00 AM 55.4 °F 51.8 °F 88% 30.09 in 6.2 mi SSW 6.9 mph - N/A   Mostly Cloudy
1:30 AM 55.4 °F 51.8 °F 88% 30.09 in 6.2 mi SSW 5.8 mph - N/A   Mostly Cloudy
2:00 AM 55.4 °F 48.2 °F 77% 30.09 in 6.2 mi SSW 8.1 mph - N/A   Mostly Cloudy
2:30 AM 53.6 °F 48.2 °F 82% 30.09 in - SSW 8.1 mph - N/A   Clear
3:00 AM 55 °F 48 °F 70% 30.10 in 19 mi SSW 8.1 mph - -   Partly Cloudy
3:00 AM 55.4 °F 48.2 °F 77% 30.09 in 6.2 mi SSW 8.1 mph - N/A   Mostly Cloudy
3:30 AM 55.4 °F 44.6 °F 67% 30.09 in - SSW 8.1 mph - N/A   Clear
4:00 AM 54 °F 46 °F 66% 30.10 in - SSW 8.1 mph - -  
4:00 AM 53.6 °F 46.4 °F 77% 30.09 in - SSW 8.1 mph - N/A   Clear
4:30 AM 53.6 °F 46.4 °F 77% 30.09 in - SSW 8.1 mph - N/A   Clear
5:00 AM 55.4 °F 42.8 °F 63% 30.09 in - SSW 5.8 mph - N/A   Clear
5:30 AM 53.6 °F 44.6 °F 72% 30.09 in - SSW 9.2 mph - N/A   Clear
6:00 AM 51.8 °F 44.6 °F 76% 30.12 in - SSW 9.2 mph - N/A   Clear
6:30 AM 53.6 °F 46.4 °F 77% 30.12 in 6.2 mi SSW 8.1 mph - N/A   Mostly Cloudy
7:00 AM 54 °F 45 °F 64% 30.15 in - SSW 10.4 mph - -  
7:00 AM 53.6 °F 44.6 °F 72% 30.15 in 6.2 mi SSW 10.4 mph - N/A   Mostly Cloudy
7:30 AM 55.4 °F 44.6 °F 67% 30.15 in 6.2 mi SSW 8.1 mph - N/A   Mostly Cloudy
8:00 AM 57.2 °F 44.6 °F 63% 30.15 in 6.2 mi SSW 9.2 mph - N/A   Mostly Cloudy
8:30 AM 59.0 °F 44.6 °F 59% 30.15 in - SSW 9.2 mph - N/A   Clear
9:00 AM 60 °F 44 °F 45% 30.16 in 22 mi SSW 9.2 mph - -   Scattered Clouds
9:00 AM 59.0 °F 44.6 °F 59% 30.15 in - SSW 9.2 mph - N/A   Clear
9:30 AM 59.0 °F 42.8 °F 55% 30.15 in 6.2 mi SSW 11.5 mph - N/A   Mostly Cloudy
10:00 AM 60 °F 44 °F 43% 30.18 in - SW 11.5 mph - -  
10:00 AM 60.8 °F 42.8 °F 52% 30.18 in 6.2 mi SW 11.5 mph - N/A   Mostly Cloudy
10:30 AM 62.6 °F 44.6 °F 52% 30.15 in 6.2 mi South 9.2 mph - N/A   Mostly Cloudy
11:00 AM 62.6 °F 42.8 °F 48% 30.15 in 6.2 mi South 6.9 mph - N/A   Mostly Cloudy
11:30 AM 64.4 °F 42.8 °F 45% 30.15 in 6.2 mi SSW 6.9 mph - N/A   Mostly Cloudy
12:00 PM 63 °F 42 °F 35% 30.15 in 22 mi SSW 9.2 mph - -   Partly Cloudy
12:00 PM 62.6 °F 42.8 °F 48% 30.12 in 6.2 mi SSW 9.2 mph - N/A   Mostly Cloudy
12:30 PM 62.6 °F 42.8 °F 48% 30.12 in 6.2 mi SSW 9.2 mph - N/A   Mostly Cloudy
1:00 PM 62 °F 44 °F 41% 30.14 in - SSW 9.2 mph - -  
1:00 PM 62.6 °F 44.6 °F 52% 30.12 in 6.2 mi SSW 9.2 mph - N/A Rain Light Rain Showers
1:30 PM 59.0 °F 48.2 °F 67% 30.12 in 6.2 mi SSW 8.1 mph - N/A Rain Light Rain Showers
2:00 PM 60.8 °F 48.2 °F 63% 30.12 in 6.2 mi SSW 8.1 mph - N/A   Mostly Cloudy
2:30 PM 60.8 °F 46.4 °F 59% 30.12 in 6.2 mi SSW 9.2 mph - N/A   Mostly Cloudy
3:00 PM 60 °F 50 °F 62% 30.13 in 11 mi SSW 6.9 mph - - Rain Light Rain Showers
3:00 PM 59.0 °F 50.0 °F 72% 30.12 in 6.2 mi SSW 6.9 mph - N/A Rain Light Rain Showers
3:30 PM 60.8 °F 48.2 °F 63% 30.12 in 6.2 mi South 5.8 mph - N/A   Mostly Cloudy
4:00 PM 60 °F 47 °F 52% 30.12 in - South 6.9 mph - -  
4:00 PM 60.8 °F 46.4 °F 59% 30.09 in 6.2 mi South 6.9 mph - N/A Rain Light Rain Showers
4:30 PM 59.0 °F 48.2 °F 67% 30.12 in 6.2 mi SSW 6.9 mph - N/A Rain Light Rain Showers
5:00 PM 59.0 °F 50.0 °F 72% 30.12 in 6.2 mi SSW 9.2 mph - N/A   Mostly Cloudy
5:30 PM 59.0 °F 50.0 °F 72% 30.12 in 6.2 mi SSW 9.2 mph - N/A Rain Light Rain
6:00 PM 59.0 °F 51.8 °F 77% 30.12 in 6.2 mi SW 8.1 mph - N/A Rain Light Rain
6:30 PM 57.2 °F 53.6 °F 88% 30.12 in 6.2 mi SSW 8.1 mph - N/A Rain Light Rain
7:00 PM 57 °F 50 °F 69% 30.16 in - SSW 9.2 mph - -  
7:00 PM 57.2 °F 50.0 °F 77% 30.15 in 6.2 mi SSW 9.2 mph - N/A   Mostly Cloudy
7:30 PM 55.4 °F 51.8 °F 88% 30.15 in 6.2 mi SSW 8.1 mph - N/A Rain Light Rain
8:00 PM 55.4 °F 51.8 °F 88% 30.15 in 6.2 mi SW 2.3 mph - N/A Rain Light Rain
8:30 PM 55.4 °F 53.6 °F 94% 30.15 in 6.2 mi SSW 3.5 mph - N/A   Mostly Cloudy
9:00 PM 56 °F 53 °F 86% 30.18 in 12 mi West 5.8 mph - - Rain Light Rain
9:00 PM 55.4 °F 53.6 °F 94% 30.18 in 6.2 mi WSW 5.8 mph - N/A Rain Light Rain
9:30 PM 57.2 °F 51.8 °F 82% 30.15 in 6.2 mi WSW 5.8 mph - N/A   Overcast
10:00 PM 56 °F 52 °F 83% 30.18 in - West 5.8 mph - -  
10:00 PM 55.4 °F 51.8 °F 88% 30.15 in 6.2 mi West 5.8 mph - N/A Rain Light Rain
10:30 PM 55.4 °F 51.8 °F 88% 30.15 in 6.2 mi WSW 5.8 mph - N/A   Mostly Cloudy
11:00 PM 55.4 °F 51.8 °F 88% 30.15 in 6.2 mi West 4.6 mph - N/A   Overcast
11:30 PM 55.4 °F 51.8 °F 88% 30.15 in - West 4.6 mph - N/A   Clear